Terminal Aerodrome Forecast
Issued by NWS Paducah, KY

Home | Current Version | Previous Version | Text Only | Print | Product List | Glossary On
Versions: 1 2 3 4 5 6 7 8 9 10 11 12 13 14 15 16 17 18 19
000
FTUS43 KPAH 292321
TAFEVV
TAF
KEVV 292321Z 3000/3024 09011KT P6SM BKN040
     FM300600 12008KT P6SM SCT050 BKN100
     FM301000 17009KT 4SM -TSRA BR BKN025CB
     FM301600 19013G21KT P6SM SCT030 BKN250
     FM302000 19015G25KT 3SM TSRA OVC030CB=

USA.gov is the U.S. government's official web portal to all federal, state and local government web resources and services.